#timestamp,LO_Frequency,Hit,StdDev 
1652461215.2,286046999.0,N
1652461235.1,286046997.3,N
1652461236.0,286046997.3,N
1652461255.8,286046998.0,N
1652461275.7,286046997.9,N
1652461295.5,286046995.3,Y
1652461315.3,286046997.4,P
1652461335.2,286046999.5,N
1652461355.0,286046998.2,N
1652461355.9,286046998.2,N
1652461375.8,286047000.4,N
1652461395.6,286046998.7,N
1652461415.4,286046998.1,N
1652461435.3,286047000.5,N
1652461455.1,286047001.5,N
1652461475.8,286046999.9,N
1652461495.7,286047000.1,N
1652461515.5,286047001.9,N
1652461535.4,286047002.2,N
1652461555.2,286047003.9,N
1652461575.0,286047003.8,N
1652461575.9,286047003.8,N
1652461595.8,286047003.1,N
1652461615.6,286047003.4,N
1652461635.4,286047003.4,N
1652461655.3,286047004.0,N
1652461675.1,286047004.4,N
1652461695.9,286047004.3,N
1652461715.7,286047001.4,N
1652461735.5,286047002.4,N
1652461755.4,286047002.3,N
1652461775.2,286047002.5,N
1652461795.0,286047002.0,N
1652461795.9,286047002.0,N
1652461815.8,286047002.2,N
1652461835.6,286047001.6,N
1652461855.5,286047001.5,N
1652461875.3,286047003.5,N
1652461895.1,286047003.2,N
1652461915.9,286047005.3,Y
1652461935.7,286047001.3,P
1652461955.5,286047004.0,P
1652461975.4,286047002.8,N
1652461995.2,286047002.3,N
1652462015.1,286047000.3,N
1652462016.0,286047000.3,N
1652462035.8,286047000.9,N
1652462055.6,286047004.4,Y
1652462075.5,286046999.7,P
1652462095.3,286047002.5,N
1652462115.2,286047002.8,N
1652462135.9,286047002.6,N
1652462155.7,286046999.7,N
1652462175.6,286047000.0,N
1652462195.4,286046999.7,N
1652462215.2,286047000.2,N
1652462235.1,286046999.8,N
1652462236.0,286046999.8,N
1652462255.8,286047000.0,N
1652462275.7,286047000.1,N
1652462295.5,286046998.1,N
1652462315.3,286046998.6,N
1652462335.2,286046998.7,N
1652462355.0,286047001.2,N
1652462355.9,286047001.2,N
1652462375.7,286047000.7,N
1652462395.6,286046998.5,N
1652462415.4,286046998.7,N
1652462435.3,286046998.8,N
1652462455.1,286046998.1,N
1652462456.0,286046998.1,N
1652462475.8,286047001.0,N
1652462495.7,286047001.1,N
1652462515.5,286047001.2,N
1652462535.3,286047000.1,N
1652462555.2,286047000.2,N
1652462575.0,286046999.7,N
1652462575.9,286046999.7,N
1652462595.8,286046999.7,N
1652462615.6,286047002.7,N
1652462635.4,286047002.2,N
1652462655.3,286047002.7,N
1652462675.1,286047001.0,N
1652462695.9,286047000.9,N
1652462715.7,286047000.8,N
1652462735.5,286047000.5,N
1652462755.4,286047000.8,N
1652462775.2,286047002.4,N
1652462795.1,286047002.6,N
1652462796.0,286047002.6,N
1652462815.8,286046999.7,N
1652462835.6,286047002.8,N
1652462855.5,286047002.1,N
1652462875.3,286047002.0,N
1652462895.1,286047002.0,N
1652462915.9,286047003.8,N
1652462935.7,286047003.2,N
1652462955.6,286047006.0,Y
1652462975.4,286047004.4,P
1652462995.2,286047004.3,N
1652463015.1,286047004.3,N
1652463016.0,286047004.3,N
1652463035.8,286047001.4,N
1652463055.7,286047002.1,N
1652463075.5,286046999.7,N
1652463095.3,286047000.1,N
1652463115.2,286047000.0,N
1652463135.9,286047000.4,N
1652463155.7,286047000.0,N
1652463175.6,286046999.9,N
1652463195.4,286047000.2,N
1652463215.2,286046999.9,N
1652463235.1,286047000.1,N
1652463236.0,286047000.1,N
1652463255.8,286046999.9,N
1652463275.7,286047001.2,N
1652463295.5,286047001.0,N
1652463315.3,286046999.8,N
1652463335.2,286047000.9,N
1652463355.0,286047001.1,N
1652463355.9,286047001.1,N
1652463375.8,286047000.2,N
1652463395.6,286047000.5,N
1652463415.4,286047001.0,N
1652463435.3,286047000.9,N
1652463455.1,286047000.5,N
1652463475.9,286047000.2,N
1652463495.7,286046999.7,N
1652463515.5,286047000.6,N
1652463535.4,286047000.6,N
1652463555.2,286047001.2,N
1652463575.0,286046998.2,N
1652463575.9,286046998.2,N
1652463595.8,286047000.6,N
1652463615.6,286047001.0,N
1652463635.5,286046998.1,N
1652463655.3,286046998.6,N
1652463675.1,286046998.1,N
1652463695.9,286046998.6,N
1652463715.7,286046998.1,N
1652463735.5,286047000.9,N
1652463755.4,286047000.4,N
1652463775.2,286047002.8,N
1652463795.1,286047002.8,N
1652463796.0,286047002.8,N
1652463815.8,286047002.5,N
1652463835.6,286047002.3,N
1652463855.5,286046999.7,N
1652463875.3,286047002.0,N
1652463895.2,286047000.5,N
1652463915.9,286047001.1,N
1652463935.7,286047000.5,N
1652463955.6,286047000.8,N
1652463975.4,286047000.2,N
1652463995.2,286047000.4,N
1652464015.1,286047000.4,N
1652464016.0,286047000.4,N
1652464035.8,286047002.8,N
1652464055.7,286047002.8,N
1652464075.5,286047001.5,N
1652464095.3,286047002.6,N
1652464115.2,286047001.9,N
1652464135.0,286047001.3,N
1652464135.9,286047001.3,N
1652464155.7,286047002.6,N
1652464175.6,286047001.9,N
1652464195.4,286047002.2,N
1652464215.3,286047004.4,Y
1652464235.1,286047002.4,P
1652464236.0,286047002.4,P
1652464255.8,286047000.5,N
1652464275.7,286047000.5,N
1652464295.5,286047000.5,N
1652464315.4,286046998.6,N
1652464335.2,286046998.4,N
1652464355.0,286046998.4,N
1652464355.9,286046998.4,N
1652464375.8,286046998.9,N
1652464395.6,286046996.9,N
1652464415.4,286046998.9,N
1652464435.3,286046999.0,N
1652464455.1,286046998.8,N
1652464475.9,286046999.3,N
1652464495.7,286046996.5,N
1652464515.5,286046996.5,N
1652464535.4,286046997.1,N
1652464555.2,286046997.8,N
1652464575.0,286046997.5,N
1652464575.9,286046997.5,N
1652464595.8,286046995.1,N
1652464615.6,286046997.8,N
1652464635.5,286046999.2,N
1652464655.3,286046997.6,N
1652464675.1,286046997.3,N
1652464695.9,286046996.7,N
1652464715.7,286046996.5,N
1652464735.5,286046999.4,N
1652464755.4,286047000.8,N
1652464775.2,286046998.3,N
1652464795.1,286046998.2,N
1652464796.0,286046998.2,N
